RH
74 75 75 75 70 61 50 44 46 49 47 45 47 46 46 51 55 56 55 56 56 55 52 52 54 52 50 49 48 47 45 47 50 51 52 53 51 47 48 52 52 53 53 53 53 51 52 50 45 44 42 39 36 34 30 27 24 13 5 8 9 7 10 11 10 9 8 8 8 10 16 25 32 32 25 16 12 12 11 9 9 12 21 30 34 35 36 35 33 31 31 35 38 38 34 29 24
69 70 71 74 75 73 64 50 42 44 46 44 45 45 44 46 52 55 55 56 57 56 54 53 54 54 53 50 49 48 47 47 49 50 51 54 52 45 47 52 51 51 50 49 49 48 50 49 45 42 39 37 35 33 31 27 25 17 6 7 9 7 9 11 11 9 8 8 8 10 15 24 31 33 25 15 13 13 11 10 8 8 12 22 30 35 38 38 35 32 32 34 36 35 31 25 20
64 64 66 68 71 73 73 66 51 41 41 43 46 46 45 47 48 52 54 56 58 57 56 54 53 54 54 54 51 49 49 48 48 49 51 55 53 45 46 50 49 48 46 45 45 44 45 46 44 41 38 36 35 33 31 28 25 20 8 7 9 6 8 11 11 9 9 8 8 10 15 23 30 32 24 14 13 13 13 11 9 8 8 14 25 33 37 39 36 32 32 33 35 33 27 21 19
62 59 60 62 64 66 70 73 69 53 42 41 49 52 49 51 48 49 52 55 59 59 60 57 55 55 55 57 54 51 50 50 49 50 51 54 54 48 45 47 46 46 44 43 42 40 39 41 41 40 38 36 34 33 31 28 25 22 11 6 9 7 7 10 12 10 9 8 8 10 16 23 29 32 22 14 14 14 13 12 9 8 7 8 18 29 34 38 35 32 32 33 34 30 24 21 22
59 57 56 57 57 61 64 67 72 70 60 48 51 57 54 56 53 51 52 55 59 60 63 60 58 58 58 59 56 53 53 52 51 49 50 53 55 50 44 44 44 42 42 41 39 38 37 37 37 37 37 35 34 32 31 27 23 22 13 7 8 7 6 10 12 11 9 8 8 10 15 23 30 31 21 13 14 15 15 12 10 8 7 6 13 24 30 34 33 31 31 33 33 28 24 24 24
57 56 55 55 54 56 59 62 66 69 71 63 61 63 57 58 57 53 54 55 58 58 58 57 57 57 59 61 58 57 54 52 50 49 50 52 55 51 45 46 45 40 39 39 36 35 35 33 33 33 34 33 32 31 29 26 22 21 14 7 8 7 6 10 12 11 10 8 8 10 15 23 31 31 20 13 14 16 16 13 10 8 7 6 11 20 26 31 30 29 31 33 32 27 27 27 25
54 55 55 54 53 54 54 57 60 61 64 67 71 72 64 62 59 55 54 54 56 57 56 58 58 57 58 60 58 57 53 50 50 50 51 52 53 51 49 49 49 42 36 36 34 32 32 31 30 28 28 29 29 29 28 25 21 20 15 7 7 7 6 9 13 12 9 9 8 10 15 24 32 30 19 14 15 16 16 15 12 10 8 8 11 18 24 27 27 28 31 34 32 29 29 28 24
52 52 53 54 52 52 52 52 55 56 56 58 66 74 70 66 64 60 55 53 56 58 58 59 60 60 60 59 58 57 53 52 52 52 53 53 52 51 51 52 52 43 34 33 32 30 29 27 26 24 23 24 26 27 25 22 19 19 15 8 7 7 6 10 13 12 10 9 9 10 15 25 32 29 18 14 15 17 18 18 17 15 12 10 12 16 20 22 24 29 33 35 33 32 32 29 24
49 52 52 52 51 49 51 52 52 53 53 51 56 68 72 67 63 61 59 58 61 61 61 60 60 61 61 60 59 58 55 54 53 54 55 54 52 51 51 53 50 40 32 30 28 28 25 21 19 19 21 21 23 24 23 18 16 18 14 7 8 7 6 11 14 12 10 9 9 10 15 26 33 27 18 14 15 19 21 21 20 20 17 14 13 14 17 20 26 30 35 36 34 35 34 29 25
50 55 56 51 50 48 49 51 51 52 51 50 51 58 70 75 68 65 69 68 66 63 63 62 62 63 63 63 62 60 57 56 56 56 56 54 53 51 53 53 46 37 30 25 25 23 17 14 14 16 17 18 20 21 18 15 15 17 13 8 8 7 6 12 15 13 11 10 9 10 15 26 32 26 18 14 15 19 23 22 21 23 24 22 18 18 22 27 31 34 37 37 36 37 35 31 26
53 56 60 56 52 50 48 49 51 51 50 50 50 50 62 75 73 70 67 60 57 55 56 57 58 61 63 64 63 61 58 57 57 57 55 53 52 52 54 51 43 36 27 21 21 17 10 9 10 12 13 14 16 15 14 13 16 17 11 8 8 6 7 13 15 13 11 10 10 11 15 25 32 26 18 15 15 20 24 22 20 22 28 30 27 28 34 37 38 38 39 37 37 38 36 32 27
51 51 54 55 56 55 54 52 51 51 49 50 52 49 52 63 69 71 63 52 49 47 47 49 52 55 59 61 60 57 56 57 57 56 55 53 52 53 52 47 40 32 22 19 18 11 7 7 8 10 10 11 12 12 13 15 18 16 9 7 7 6 8 13 15 13 12 10 10 11 15 24 31 26 18 15 15 19 24 21 18 21 30 36 35 38 44 45 43 42 41 38 37 38 37 32 29
43 43 43 47 52 55 57 55 54 54 50 49 51 48 49 55 61 67 64 58 52 46 44 44 46 49 53 56 56 55 55 55 54 52 52 52 52 51 48 43 36 27 18 17 14 8 6 6 8 11 10 10 12 15 17 19 19 13 8 7 7 7 9 13 16 14 12 11 10 12 15 23 30 27 19 15 15 19 23 21 17 18 27 35 38 43 48 49 47 44 42 40 38 39 37 33 28
40 40 38 42 46 47 50 50 51 53 52 49 49 48 49 54 55 55 55 56 55 52 48 44 43 43 45 47 48 50 49 48 47 47 49 49 48 47 45 40 32 20 15 15 11 8 6 6 12 16 16 17 20 23 23 22 17 9 7 8 7 8 11 14 16 14 13 11 11 12 15 23 30 27 21 16 15 19 22 21 17 15 19 26 33 41 47 49 48 47 43 41 40 40 38 32 23
43 41 39 41 44 44 44 45 46 49 50 49 47 46 49 54 54 51 47 47 49 50 49 45 42 41 41 41 42 43 43 43 43 44 45 44 44 42 40 36 29 18 14 14 11 10 7 6 13 18 23 29 30 29 26 19 12 8 8 7 7 9 13 16 16 15 13 12 11 12 15 25 30 27 22 17 15 18 21 21 17 14 14 17 25 34 42 46 48 49 46 43 43 42 36 26 16
45 44 44 44 44 43 42 43 44 45 46 46 44 43 48 52 51 50 47 44 43 45 46 44 42 40 39 40 41 41 42 42 42 42 41 40 39 37 36 34 28 21 16 14 12 10 7 6 9 13 25 34 34 28 21 14 8 8 8 7 9 13 16 17 17 16 14 13 12 12 17 26 29 27 23 18 16 17 20 21 18 15 13 14 19 26 34 40 45 49 48 46 45 39 29 19 14
45 45 46 44 42 41 41 42 43 43 43 43 42 43 47 47 45 44 45 44 43 43 44 44 43 41 40 40 40 40 41 41 41 40 39 38 37 36 35 32 27 23 18 14 13 10 6 7 7 10 24 33 31 24 14 9 8 8 8 9 13 16 18 18 17 17 16 14 13 12 18 26 29 27 25 20 17 17 20 22 20 16 12 12 16 21 26 35 44 46 44 41 37 29 20 15 14
43 43 44 39 36 38 39 42 42 42 41 40 40 40 43 43 39 40 43 43 43 44 45 44 44 43 42 41 41 41 40 40 39 38 37 36 35 35 33 28 24 19 14 12 9 7 7 9 9 9 20 30 28 20 12 9 9 8 9 11 15 18 18 19 18 18 18 15 14 14 20 29 30 28 27 23 18 18 21 22 20 17 12 11 15 17 18 28 39 38 32 29 26 20 16 14 12
40 42 40 31 31 36 39 43 42 42 42 40 39 38 39 39 38 38 40 42 43 44 45 45 44 43 43 42 42 42 41 40 38 37 35 34 33 31 29 24 20 14 19 27 15 4 9 11 12 16 19 28 30 21 14 12 11 10 10 13 15 19 19 19 19 20 20 18 16 17 22 32 32 28 28 26 21 19 21 22 21 17 13 12 15 14 11 18 27 26 22 19 19 16 14 11 10
36 37 33 26 30 35 37 41 42 42 43 42 41 39 39 38 38 39 39 40 42 43 43 43 43 42 42 42 41 40 40 38 36 35 32 30 28 26 24 18 16 12 20 43 37 9 5 11 15 23 28 35 42 36 29 23 19 15 12 14 16 19 21 20 22 24 23 20 19 19 23 31 31 27 27 27 24 20 21 22 21 18 15 14 14 11 9 14 19 19 19 18 17 15 12 10 10
29 29 25 24 30 33 33 37 39 41 42 42 41 41 40 39 39 39 39 40 41 42 41 41 41 40 40 40 39 38 37 35 34 32 28 26 23 21 18 14 14 8 15 50 64 31 4 9 19 26 35 45 56 58 52 45 36 29 20 16 17 18 20 21 23 26 25 23 22 20 22 28 30 26 24 26 25 22 22 22 21 20 17 15 14 13 11 15 19 18 18 18 16 13 11 11 11
18 19 19 22 26 28 30 34 36 37 38 39 39 39 40 40 40 39 39 39 39 40 39 39 39 39 39 38 37 35 33 31 29 27 24 21 18 17 13 12 10 7 30 64 80 62 23 11 24 34 43 54 64 68 69 66 55 45 31 20 17 17 19 21 24 26 26 25 24 22 24 29 30 27 23 24 25 24 23 23 23 21 19 16 15 15 14 16 18 18 16 16 15 13 13 13 13
9 10 13 16 19 22 26 29 32 34 33 33 34 36 37 38 38 39 38 38 38 37 36 37 37 37 38 38 35 32 29 26 24 21 18 15 13 12 9 11 9 9 45 72 71 71 46 20 28 45 54 59 67 73 78 80 70 59 44 28 19 18 20 22 26 28 26 26 26 27 29 33 32 29 26 25 27 27 25 24 24 23 20 17 17 15 15 17 17 17 16 15 14 14 14 13 14
6 6 7 9 11 14 18 22 26 28 27 28 30 30 32 34 34 36 36 36 36 35 34 34 34 36 37 36 33 28 25 22 19 15 12 10 8 9 9 11 11 9 38 68 69 68 54 33 33 46 56 62 71 78 80 84 79 69 55 37 23 21 22 23 26 27 26 26 27 31 33 35 34 33 32 30 31 30 27 24 24 24 22 19 18 16 16 16 16 15 15 15 15 14 14 14 14
6 5 6 6 7 8 11 14 17 20 22 24 25 23 26 29 29 30 31 31 32 33 32 31 31 33 33 32 29 24 22 18 15 12 8 7 8 10 12 11 13 10 17 40 54 54 48 44 45 49 57 67 77 79 79 82 81 73 55 33 22 22 23 22 24 27 26 25 27 33 35 36 36 37 38 39 39 37 32 27 25 25 24 22 19 18 17 16 16 16 15 15 15 15 15 16 15
7 5 6 5 6 6 7 9 10 13 16 19 19 18 22 24 22 22 23 23 25 28 28 27 27 28 28 26 24 20 18 15 12 10 6 9 13 12 13 12 13 13 11 14 22 28 36 45 50 54 60 66 71 72 74 79 81 74 51 26 19 23 27 28 28 27 24 23 26 33 38 38 40 42 44 48 51 50 45 33 26 26 25 24 23 21 19 18 18 17 17 16 16 17 16 16 16
10 8 7 6 6 6 6 7 8 9 10 12 13 15 18 18 16 16 16 17 19 22 23 22 22 22 22 21 19 16 13 12 10 8 9 15 17 13 12 12 12 12 12 12 10 16 31 44 50 59 64 59 57 60 67 76 79 75 54 31 24 26 28 29 26 22 20 21 27 36 40 41 46 54 59 65 69 71 63 41 27 28 27 27 27 25 23 21 20 18 18 18 17 17 17 17 17
15 12 10 8 6 5 5 6 6 7 8 8 10 12 13 13 13 12 12 15 15 17 19 19 18 18 17 16 15 14 11 10 10 9 14 19 16 11 9 9 10 10 10 12 10 14 30 48 60 66 64 55 51 55 65 74 73 66 56 43 34 29 24 21 18 18 19 23 32 38 39 44 57 69 75 80 83 84 71 43 29 30 29 30 30 29 28 25 22 20 19 19 18 18 17 18 18
19 16 14 12 10 7 5 5 6 6 6 7 9 9 9 9 10 11 11 12 13 14 16 16 15 14 13 13 13 12 11 10 10 12 18 20 13 7 7 6 7 8 9 10 11 13 21 43 66 72 65 59 57 60 70 80 78 71 72 66 52 35 25 21 20 21 24 30 36 39 44 54 68 77 84 87 85 86 73 43 30 32 31 32 33 33 32 28 24 22 21 20 19 19 18 19 21
21 19 18 15 13 10 7 7 7 6 6 7 8 6 5 7 8 9 10 10 12 12 13 14 13 13 11 12 13 12 11 10 11 16 20 16 8 4 4 4 4 5 7 8 9 11 17 40 65 69 65 65 63 65 76 88 90 87 86 79 59 38 31 32 30 27 31 38 43 47 55 65 76 82 88 88 83 86 81 53 34 34 35 34 35 34 32 27 24 22 21 20 19 19 20 21 23
21 21 19 17 14 11 11 10 8 7 6 7 7 5 4 6 7 8 8 8 10 11 12 13 12 12 11 11 12 12 11 11 14 18 16 8 4 3 3 3 3 3 5 7 7 10 22 44 57 54 57 66 67 70 83 93 94 89 79 68 53 44 47 48 41 35 38 45 50 57 65 72 78 82 85 87 84 84 84 66 42 36 36 35 35 33 29 25 22 21 19 19 19 21 22 24 25
18 20 16 15 13 10 12 14 11 8 7 8 7 5 5 5 6 6 6 6 8 10 10 11 11 11 10 10 10 11 11 14 17 14 8 4 3 3 2 2 2 3 5 6 6 7 14 26 30 31 44 62 69 74 84 89 88 83 73 64 59 62 68 60 47 42 44 51 57 64 72 75 76 77 78 83 86 84 82 68 46 38 36 34 32 27 24 22 21 20 20 22 23 24 25 26 28
16 16 14 14 13 10 13 15 15 13 10 9 7 5 5 5 5 6 5 5 5 7 8 8 8 8 8 8 8 10 14 16 14 8 4 4 4 2 3 3 4 8 11 12 13 11 10 14 20 28 42 60 73 79 83 84 86 86 77 69 67 75 80 65 51 48 49 54 63 70 76 78 77 77 77 83 88 87 81 66 50 41 34 29 26 23 23 23 23 23 23 26 27 27 28 30 32
15 12 12 12 13 12 13 16 17 17 14 10 8 6 6 5 6 6 5 4 4 5 6 5 5 6 6 7 8 11 15 14 9 6 5 5 3 4 5 5 11 17 19 20 19 18 19 24 36 50 59 68 77 83 86 89 94 91 79 69 65 73 83 74 59 53 51 56 64 70 74 78 80 79 81 89 92 85 76 66 51 39 30 26 25 24 24 24 26 26 26 28 28 30 32 33 35
15 12 11 11 13 13 13 17 19 20 18 13 9 7 6 6 6 6 5 4 4 4 4 4 4 5 6 8 9 12 13 10 7 6 6 4 4 6 7 11 19 22 22 18 15 25 36 42 54 65 70 76 82 89 94 94 94 89 76 69 68 75 86 81 66 56 54 59 65 69 74 78 79 79 83 93 95 84 73 61 45 35 32 31 29 29 28 26 27 28 28 30 32 34 36 36 36
19 15 13 12 12 12 13 16 20 21 21 17 12 8 7 7 6 6 6 4 4 4 4 4 4 4 7 9 11 13 11 8 7 7 5 5 4 6 9 13 17 20 20 16 19 37 53 64 73 72 71 79 83 86 90 88 88 90 82 76 76 82 92 89 72 60 57 60 67 72 75 77 78 80 84 94 100 89 71 54 42 39 39 37 36 34 31 29 29 30 32 34 36 38 39 38 35
23 19 16 15 13 12 13 15 20 22 22 20 15 11 8 8 7 6 6 5 5 4 4 4 4 5 8 12 14 13 10 7 7 7 6 6 4 6 9 12 16 19 20 20 26 35 45 62 74 69 71 81 81 80 84 83 87 93 87 79 75 77 93 97 78 64 61 64 70 74 78 81 84 88 91 95 98 86 66 54 50 50 48 47 43 38 34 32 32 34 36 38 40 41 41 40 36
25 23 19 18 16 14 14 15 20 22 22 22 18 13 10 8 8 7 6 6 5 5 5 4 4 6 9 14 14 9 7 7 7 7 6 6 5 7 10 14 18 20 21 24 25 27 35 52 64 66 72 78 79 81 83 83 89 92 84 78 72 70 90 100 82 69 69 72 75 79 84 88 89 92 97 97 90 79 68 64 63 59 55 49 42 36 34 34 36 38 40 42 43 44 43 43 42
26 26 23 21 20 18 16 16 21 23 22 21 20 16 11 10 9 8 7 7 6 6 5 5 5 6 11 14 9 6 7 7 7 7 6 5 6 8 11 14 18 18 24 28 26 29 38 49 59 67 73 74 75 78 79 79 85 88 83 79 71 71 92 100 85 77 80 80 82 84 85 88 92 97 99 94 84 78 74 70 64 56 47 40 35 34 35 38 41 42 43 44 45 47 47 48 48
28 27 25 24 23 21 18 17 20 23 23 22 22 18 13 11 10 9 8 7 7 6 6 6 5 6 11 11 6 6 7 7 7 7 6 5 7 12 15 18 19 20 24 26 26 32 42 53 64 71 74 74 71 73 78 80 84 86 82 76 72 80 97 99 88 86 88 85 84 86 84 86 96 99 94 89 84 81 74 64 54 45 39 36 36 38 41 43 44 44 46 46 47 49 50 51 47
28 28 27 25 26 25 20 18 20 24 25 24 23 21 15 12 10 9 9 8 7 7 6 6 5 8 11 9 6 7 7 8 8 7 6 5 8 15 20 21 21 21 21 20 22 30 39 53 70 81 82 78 76 79 81 79 79 77 73 73 77 87 97 97 94 95 93 89 87 87 88 91 97 97 93 90 86 76 64 53 46 41 39 40 42 45 46 46 47 47 46 45 45 46 46 43 37
29 28 27 27 28 27 22 19 22 26 27 25 24 22 18 13 11 9 9 8 8 7 7 6 6 9 10 8 7 8 8 8 7 7 6 6 8 14 18 20 21 22 21 19 21 26 35 52 72 85 84 82 85 83 72 66 66 66 70 79 84 91 98 99 99 99 97 94 90 86 91 98 99 96 92 86 76 64 56 50 46 44 44 45 47 48 49 50 50 48 43 40 39 37 35 32 29
30 28 28 30 29 29 24 20 23 27 27 26 25 23 19 15 12 9 9 8 8 8 7 7 7 8 9 8 9 10 8 8 8 7 7 7 8 10 14 20 21 21 22 25 28 34 47 64 76 83 84 87 90 80 63 58 62 68 77 87 92 96 100 100 99 101 100 96 93 93 96 98 92 85 80 72 63 58 53 49 46 46 48 50 51 53 54 53 49 43 38 35 31 29 28 28 28
28 28 30 31 32 31 25 22 24 27 28 29 28 24 21 17 14 11 9 9 8 8 7 7 7 7 8 9 10 10 8 8 8 7 8 9 11 14 19 22 21 23 33 42 46 50 58 65 74 83 87 87 85 77 64 59 63 74 82 89 97 100 99 97 96 97 97 95 96 99 98 89 79 73 68 62 56 52 49 47 49 51 53 54 56 56 54 48 40 35 31 29 27 27 28 28 28
28 31 35 34 35 32 26 25 28 29 30 30 26 23 21 17 16 13 11 10 9 8 8 8 7 7 7 10 11 10 8 8 9 8 10 13 16 22 24 23 23 30 45 53 48 46 45 48 65 83 87 87 87 79 64 58 69 82 87 88 93 97 97 96 94 90 90 93 98 99 93 80 69 65 60 54 50 49 50 52 54 55 57 57 56 52 44 36 31 28 27 27 28 29 29 28 26
32 36 39 39 38 33 27 28 31 32 30 24 21 21 18 15 16 16 12 11 9 8 9 8 8 8 8 10 11 11 9 9 9 9 12 18 22 25 26 30 33 36 44 45 37 36 38 47 66 78 79 78 78 73 57 53 72 86 85 86 91 94 96 96 96 89 84 90 99 97 85 72 63 59 55 52 52 54 56 56 57 58 58 55 47 39 32 28 26 26 27 28 29 28 27 25 23
38 41 43 42 39 33 28 29 32 31 24 17 18 20 18 16 17 16 13 11 10 9 10 9 8 8 8 10 12 11 11 11 10 10 12 19 23 22 27 39 43 41 41 36 32 37 47 58 63 66 71 67 65 71 62 50 63 78 79 86 94 95 95 96 93 85 83 93 99 87 72 63 60 58 56 56 58 58 58 58 58 56 50 41 34 28 27 26 26 27 28 28 27 25 23 21 21
43 43 44 42 39 34 29 29 30 26 17 14 20 22 22 20 16 16 15 12 12 11 12 11 10 10 10 13 14 14 13 11 10 9 10 17 22 21 30 43 44 41 40 35 36 46 54 56 50 54 71 73 67 70 61 48 58 72 76 85 93 90 88 86 82 84 94 98 88 72 62 61 59 58 59 61 61 60 60 58 52 43 35 29 27 26 26 25 26 27 27 26 24 22 20 19 21
46 45 45 42 39 35 30 27 25 20 15 16 23 27 26 20 16 16 17 15 14 13 13 12 12 15 17 18 18 17 15 12 10 9 12 20 23 20 27 37 37 37 38 38 44 52 53 49 45 52 68 69 57 49 46 49 60 68 70 78 85 83 80 80 82 93 100 88 72 64 61 59 59 60 62 62 62 61 57 48 37 30 27 27 26 25 25 25 26 26 26 24 22 20 19 19 21
42 42 43 40 36 33 28 25 22 18 17 19 26 31 26 18 17 18 18 17 16 14 13 14 16 20 22 22 22 19 16 14 11 11 19 26 23 19 23 30 34 36 38 42 48 53 52 47 47 55 68 71 58 48 52 59 61 62 64 73 84 87 88 93 95 95 88 73 64 61 58 58 59 61 63 63 60 53 43 33 28 27 27 26 25 24 24 25 26 25 25 23 21 19 18 18 20
39 41 43 39 34 30 25 23 22 19 20 22 27 29 21 14 16 19 19 19 18 16 14 15 17 20 22 22 19 16 15 15 15 19 27 27 20 18 23 30 36 37 39 45 49 52 54 50 43 41 49 58 54 52 60 63 58 59 66 75 85 90 96 101 93 81 71 65 61 58 57 59 62 63 64 58 48 37 31 29 28 27 26 25 25 25 25 25 25 25 24 23 21 18 17 19 23
44 45 45 39 34 31 27 26 23 21 25 27 26 23 17 13 15 18 20 21 20 17 15 15 15 16 19 20 19 16 15 17 23 28 28 24 20 22 28 34 39 39 41 45 48 53 55 51 42 33 32 41 54 62 67 67 62 61 69 80 86 92 98 92 77 65 62 61 59 58 58 60 61 61 55 44 35 30 30 30 29 28 27 26 26 25 25 25 25 25 24 22 20 18 19 23 28
46 47 43 37 36 35 30 28 24 23 28 28 22 18 16 15 16 17 20 22 21 19 16 15 15 15 16 17 18 17 17 22 26 26 24 24 25 26 31 37 40 41 44 45 48 54 57 49 39 32 32 44 65 76 76 76 71 64 70 83 90 93 88 74 62 59 58 56 56 56 56 55 54 49 40 33 31 32 32 31 30 29 28 28 28 27 27 26 26 26 25 23 21 20 23 29 30
45 44 41 38 40 37 31 32 30 27 29 27 20 17 17 17 16 17 20 22 22 20 17 16 16 16 15 14 14 16 21 25 23 22 23 26 28 28 32 37 41 45 47 47 50 55 56 47 35 31 36 46 60 71 77 82 76 67 69 76 79 79 70 62 59 57 52 51 53 54 52 49 43 36 32 33 35 35 35 34 33 31 30 30 30 30 29 28 27 27 25 24 23 25 29 31 30
46 45 44 42 41 36 32 33 33 29 28 26 22 19 18 17 17 17 19 22 23 21 18 17 17 15 14 13 11 15 24 25 20 22 28 31 31 31 34 38 42 47 49 50 53 56 52 41 32 32 38 42 47 53 64 75 72 66 66 65 65 66 63 61 59 53 49 50 51 50 46 40 34 32 34 38 40 41 41 39 36 33 32 32 32 31 30 30 29 27 26 25 26 29 31 31 30
48 48 47 44 40 35 33 33 33 33 31 26 22 20 17 17 19 19 19 21 23 22 19 18 17 16 15 14 13 18 25 22 18 24 32 36 35 32 34 38 41 47 52 53 56 56 47 36 31 34 38 39 38 42 58 72 70 64 64 63 64 65 64 62 57 51 50 49 45 40 36 33 33 36 41 45 48 49 49 46 40 36 35 35 35 34 32 31 31 29 27 26 27 29 31 31 31
44 43 42 42 39 37 37 35 34 36 34 28 24 21 17 17 20 20 20 22 23 23 21 19 18 17 16 16 17 20 20 17 18 26 33 37 36 33 34 36 38 45 52 53 55 52 41 33 32 34 37 38 34 41 62 74 69 65 67 67 67 66 64 60 55 51 49 44 38 33 31 33 37 43 50 53 54 55 55 52 46 40 39 39 38 36 35 34 33 31 29 27 27 29 31 32 31
44 40 39 40 39 38 38 35 31 30 32 33 29 21 18 19 21 22 22 23 25 24 22 22 20 18 19 21 22 23 22 19 21 28 31 32 32 33 36 38 40 48 54 54 53 46 36 32 32 33 37 38 37 51 70 74 69 69 70 69 68 67 63 57 52 49 45 38 34 32 34 37 44 52 56 57 56 56 57 56 52 47 43 42 41 39 38 36 35 33 30 28 28 31 33 33 32
Wind_Speed
25 25 25 27 28 29 28 30 34 35 32 28 26 23 19 19 21 22 22 22 23 22 23 22 20 19 16 15 16 16 15 13 12 13 13 14 17 18 17 16 17 17 17 19 21 22 23 23 23 24 25 26 26 26 26 27 28 26 24 20 18 15 13 12 11 11 12 12 12 13 13 14 15 16 18 18 18 18 18 17 15 13 11 10 9 9 9 10 10 10 10 9 8 8 9 9 8
26 26 25 25 26 27 29 32 34 36 35 30 27 25 22 21 23 24 23 24 25 24 25 25 23 21 19 19 19 18 17 15 15 15 13 13 17 18 15 13 15 15 17 18 20 22 23 23 23 24 25 26 26 26 27 27 28 27 24 21 18 16 14 13 12 11 12 12 12 13 13 14 15 16 17 18 18 18 17 17 16 14 12 11 9 9 8 9 9 9 9 8 8 8 9 8 7
28 27 26 25 25 25 27 31 34 37 38 33 27 26 25 23 24 26 26 25 25 25 26 28 25 23 22 21 22 21 19 19 18 17 15 15 17 18 15 13 15 15 16 17 20 22 24 24 23 24 25 26 27 27 27 28 28 28 25 22 19 17 14 13 12 11 11 12 12 12 13 14 15 16 17 17 17 17 17 17 17 15 13 11 9 8 7 7 7 8 8 8 7 8 7 7 7
30 29 28 27 26 26 25 27 31 36 38 37 28 25 26 24 26 27 27 27 26 25 26 27 26 26 25 23 24 23 22 22 21 19 19 20 21 19 15 14 15 17 17 18 20 22 24 24 24 25 26 27 27 28 28 28 28 28 25 22 19 17 15 13 12 11 11 12 12 12 13 14 15 16 16 16 17 17 17 18 17 16 14 12 10 8 7 6 7 7 7 6 6 6 6 6 7
32 32 31 30 29 28 27 26 28 30 33 38 33 27 28 25 28 28 27 29 29 29 28 28 27 28 28 27 27 25 24 24 23 23 22 23 23 20 16 15 17 19 19 19 20 22 23 24 24 25 26 27 28 28 28 28 28 27 25 22 20 18 16 14 12 11 11 12 12 12 13 14 15 16 16 16 17 17 18 18 17 17 15 13 11 8 7 7 6 7 6 6 5 5 5 6 7
35 34 34 32 32 31 30 29 28 27 26 32 34 31 33 29 30 31 29 31 33 34 33 33 32 32 31 30 30 27 26 26 26 26 25 25 24 21 19 19 21 21 21 21 22 22 22 23 24 25 26 27 28 28 28 27 27 27 25 22 20 19 16 14 12 11 11 12 12 12 13 14 14 15 16 16 17 17 18 18 18 17 15 13 11 9 8 7 7 6 5 5 4 3 4 6 7
37 36 36 35 34 34 32 31 30 28 25 26 28 30 33 32 33 35 35 35 36 37 37 37 36 35 33 32 32 29 28 28 29 29 28 28 26 23 23 24 25 25 24 23 23 22 22 23 24 25 26 27 27 27 27 27 27 26 25 22 20 19 17 14 12 11 11 12 11 12 13 14 14 15 15 16 17 17 18 18 17 17 15 13 11 9 8 7 6 5 4 4 3 3 4 5 7
40 39 39 37 37 36 35 33 31 29 27 25 25 28 31 30 32 36 39 39 39 39 39 39 38 36 34 35 33 31 30 29 30 30 30 30 28 27 28 29 29 28 26 25 24 23 22 23 24 25 26 27 27 27 26 26 26 26 24 21 20 19 17 13 11 10 11 11 11 12 13 14 14 14 15 16 16 17 18 17 17 16 15 13 11 9 8 6 5 4 3 3 2 2 4 5 7
42 41 41 40 39 38 37 35 33 31 28 26 24 27 32 32 33 36 37 39 38 37 37 38 38 37 36 37 35 34 33 31 31 31 31 32 31 30 31 32 30 29 27 25 24 23 23 23 24 25 26 27 27 27 26 26 25 24 23 21 20 19 15 12 11 10 11 11 11 12 13 14 14 14 14 15 16 17 17 17 17 16 15 13 11 9 7 6 5 4 3 2 1 2 3 5 7
44 43 43 43 42 41 39 37 34 32 29 27 26 25 29 31 32 32 30 30 30 30 32 35 36 37 37 38 37 35 34 32 31 31 33 33 32 32 32 32 30 29 27 24 24 24 24 25 25 26 27 28 28 27 26 25 24 23 21 19 19 17 14 11 10 10 11 11 12 12 13 14 13 14 14 14 16 17 17 17 16 16 15 13 10 8 7 6 5 4 3 1 1 1 3 5 7
45 45 45 44 44 43 41 39 35 33 30 29 27 25 24 26 28 27 23 22 25 27 29 30 31 32 34 35 34 34 33 31 32 32 33 34 33 34 34 32 30 30 27 22 23 24 25 25 25 26 27 28 28 27 26 24 23 22 20 18 18 16 13 11 10 10 11 11 12 13 13 13 13 13 14 14 15 16 17 17 16 15 14 12 10 8 7 6 5 4 3 2 2 2 4 6 7
48 47 46 46 45 43 42 40 37 34 32 31 28 26 24 25 26 25 23 24 26 28 29 29 30 31 32 33 33 32 32 32 33 34 34 34 33 34 34 32 31 30 25 21 22 23 24 24 25 25 26 27 27 26 24 23 21 20 18 17 17 15 13 11 11 10 10 11 12 12 12 13 13 13 13 14 15 15 16 17 16 15 13 12 9 7 6 6 5 4 3 3 3 4 5 7 8
49 49 48 48 46 44 43 42 40 37 35 32 29 26 24 24 24 24 25 27 27 29 31 31 30 31 31 32 32 32 33 34 35 36 34 32 32 33 33 32 31 28 23 21 22 22 23 23 23 22 22 23 24 23 22 20 20 18 17 17 16 15 13 12 11 11 10 11 11 12 12 12 12 12 13 13 14 15 15 16 16 15 13 11 10 8 7 6 6 5 4 4 4 5 6 7 8
50 50 49 50 49 47 47 45 43 40 37 33 30 26 24 24 24 24 26 27 28 30 32 32 32 31 30 29 30 32 32 33 34 35 34 32 32 33 34 33 30 26 22 21 22 22 23 22 20 18 18 20 20 20 19 18 17 16 16 16 16 15 14 12 11 11 11 11 12 12 12 12 12 12 12 13 14 14 15 15 16 15 13 12 10 9 8 7 6 6 5 4 4 5 6 8 8
52 51 51 52 52 51 50 49 45 43 40 34 30 26 24 25 25 26 28 29 30 31 33 33 33 33 29 27 29 31 31 32 33 34 34 33 33 33 34 34 31 26 23 23 23 23 23 20 17 16 16 17 17 17 16 16 16 15 15 15 15 15 13 12 12 11 11 11 12 13 12 12 12 12 12 12 13 14 14 14 15 15 14 12 10 9 8 8 7 6 5 4 4 5 6 7 8
54 53 54 55 56 55 52 50 47 45 42 35 29 26 26 27 27 29 31 32 31 32 33 33 34 33 30 28 29 30 31 33 34 35 35 34 34 34 36 35 32 29 27 26 25 25 22 19 17 15 15 15 15 14 14 14 15 15 15 15 15 14 13 12 12 12 12 12 13 13 12 11 12 12 11 12 12 13 13 14 14 14 14 12 10 9 8 7 6 6 5 4 4 5 5 6 6
56 56 57 59 59 58 55 52 49 46 40 33 29 28 30 30 28 31 33 34 33 33 34 33 34 33 31 30 30 30 33 35 36 36 36 36 36 37 38 37 34 32 30 28 27 24 21 19 18 15 14 13 13 13 13 14 14 15 15 14 14 13 13 13 13 12 12 12 13 13 12 11 11 11 11 11 11 12 13 13 14 14 13 12 10 9 8 6 5 4 4 4 4 4 4 4 5
58 58 60 61 60 58 55 52 49 46 40 34 31 32 34 33 30 33 35 35 35 35 35 35 35 34 33 33 33 33 36 37 36 35 36 37 39 39 40 38 35 32 31 30 27 23 20 19 18 16 14 13 12 12 12 13 13 14 14 13 13 13 13 13 14 13 13 13 13 13 12 11 10 10 10 10 10 11 12 12 13 13 13 11 10 9 7 6 4 4 3 3 3 3 3 4 4
60 60 62 61 59 57 54 51 49 47 43 37 34 34 36 35 33 36 37 37 38 37 38 38 37 36 35 36 36 38 39 37 36 35 36 38 41 41 40 38 35 31 30 29 25 22 20 19 18 16 15 13 12 11 11 12 12 13 13 13 13 13 13 14 15 14 13 13 13 13 13 11 10 10 10 10 10 10 11 11 12 12 12 11 9 8 7 6 5 4 4 3 2 3 3 4 5
61 62 63 61 58 56 54 52 50 48 45 40 37 37 39 37 37 39 39 39 40 41 41 41 40 37 37 38 40 41 41 39 37 37 38 40 42 41 40 38 34 30 28 28 24 23 23 20 18 17 15 14 13 12 12 13 13 13 12 12 13 13 14 15 16 15 15 14 14 14 14 13 11 11 10 10 10 10 10 10 11 11 11 10 9 8 7 6 5 4 4 3 3 3 3 4 5
62 62 63 60 58 56 54 52 50 48 46 43 41 41 42 39 40 42 42 42 42 43 43 43 42 39 40 41 41 42 42 41 40 40 41 41 41 40 38 36 32 28 28 30 27 24 23 19 17 16 15 14 13 13 14 14 14 14 12 12 13 14 15 16 17 17 17 16 15 15 14 14 13 12 11 11 11 10 9 9 10 11 11 10 9 8 7 6 5 4 4 4 4 4 4 5 7
61 62 61 60 58 57 55 52 51 49 47 45 43 44 44 42 43 45 45 44 44 45 45 44 43 42 42 42 42 42 43 43 42 42 42 41 40 38 36 33 30 26 24 27 26 24 22 18 16 16 15 15 15 15 15 16 16 15 13 13 14 15 15 17 18 19 19 18 17 15 15 15 14 13 13 13 12 10 8 8 9 10 10 10 9 8 7 6 5 5 5 5 6 6 6 7 8
58 58 58 58 58 57 55 53 51 49 48 46 44 44 44 44 46 46 46 46 46 47 47 45 43 43 43 43 43 43 44 44 43 42 41 39 38 36 33 29 26 23 20 19 17 17 18 16 16 16 15 16 17 17 17 18 18 16 14 14 14 14 15 17 19 20 20 20 18 16 14 14 14 14 14 14 14 12 9 8 9 9 10 9 9 9 8 7 6 7 7 8 8 9 8 8 9
56 54 54 55 55 55 54 52 51 50 48 47 46 46 46 46 47 47 47 48 47 48 48 46 45 44 44 44 44 44 44 44 44 42 38 36 34 32 28 25 24 21 17 13 11 13 12 13 15 16 15 15 16 16 16 17 17 15 14 14 13 13 15 17 19 21 21 21 19 17 15 14 14 14 14 13 14 14 12 10 9 9 10 10 9 9 9 8 8 9 9 9 10 10 10 10 10
56 54 52 52 51 51 51 49 49 49 48 48 47 48 48 48 48 48 48 49 49 49 48 47 46 45 45 44 44 44 44 45 43 40 37 33 30 28 26 24 24 22 20 17 14 14 13 12 15 16 16 14 14 13 13 14 14 14 13 13 13 13 15 17 20 21 21 21 20 18 16 15 15 15 15 14 14 15 15 14 11 9 10 10 10 10 10 10 10 10 10 10 11 11 11 11 11
56 54 52 51 51 49 46 44 44 46 47 47 48 49 50 49 49 49 49 49 49 49 48 47 46 46 45 44 44 44 44 44 41 39 36 31 29 28 27 26 26 24 22 20 18 17 13 12 14 16 16 15 14 14 12 12 14 14 14 13 12 13 15 17 20 21 21 21 21 19 17 16 17 17 18 18 18 18 18 16 13 11 10 11 11 11 11 11 11 11 11 11 12 12 12 12 11
57 56 55 53 52 50 45 41 41 42 43 45 47 49 50 49 49 50 49 49 49 49 48 47 46 45 44 43 43 44 44 42 40 37 33 28 28 29 27 27 27 25 23 20 18 15 12 13 15 16 16 16 16 16 13 12 14 16 16 15 14 14 16 18 20 22 21 21 21 19 18 18 18 18 18 18 19 19 18 17 14 11 10 11 12 12 12 12 12 12 12 13 13 13 13 12 12
58 58 57 55 54 51 46 42 40 40 41 42 44 46 48 48 48 49 49 49 49 48 48 47 45 44 42 42 42 43 42 40 38 34 29 27 28 27 25 26 26 25 22 20 18 14 12 13 15 15 16 17 18 18 15 13 13 15 16 16 16 16 17 19 21 21 20 20 20 19 19 19 18 17 16 16 16 16 16 15 15 12 11 11 12 13 13 13 13 13 14 14 14 14 13 13 13
60 59 58 56 54 53 48 43 41 40 40 40 42 45 46 46 47 48 49 48 48 47 47 46 44 42 40 40 41 41 40 38 36 32 27 27 28 25 22 23 24 24 21 18 17 15 14 14 14 13 15 17 18 19 16 14 15 16 18 19 19 17 18 20 21 20 19 19 20 19 19 18 17 16 15 14 13 13 14 15 15 13 12 12 12 12 13 13 13 14 14 15 15 14 14 14 14
61 60 59 57 55 53 49 45 43 41 41 40 42 44 44 44 44 45 47 47 47 46 45 44 43 39 37 39 41 40 38 36 33 29 27 27 26 21 19 20 21 21 19 17 16 15 15 15 15 15 16 17 18 19 17 17 17 18 20 20 19 18 19 21 20 19 19 18 19 19 18 17 15 14 13 12 13 13 13 15 15 13 12 12 11 12 12 13 14 14 15 15 14 15 15 15 15
60 60 60 57 54 52 48 46 45 43 43 41 43 44 42 41 42 42 44 44 44 44 43 42 40 37 36 38 40 39 36 33 30 27 26 24 21 17 15 16 18 18 17 16 15 15 15 16 17 18 18 18 18 19 18 17 17 16 17 17 18 19 20 20 20 19 18 18 19 18 17 16 14 14 13 13 13 13 13 15 15 13 12 11 11 11 12 13 14 15 15 15 15 16 16 16 16
60 61 60 57 54 52 48 47 46 45 44 42 44 44 41 41 41 40 41 40 41 41 40 39 37 36 35 36 37 35 32 29 27 24 22 19 15 13 12 13 15 15 14 13 13 15 17 18 19 20 20 19 19 19 19 19 18 17 17 17 18 19 19 18 18 19 18 18 18 18 17 16 15 15 15 14 13 13 12 14 14 12 11 10 10 11 12 13 15 15 15 15 16 17 17 17 16
60 60 58 56 54 51 48 48 47 46 45 44 45 45 42 40 40 39 38 37 37 37 36 35 34 34 33 32 31 30 27 25 23 20 17 14 12 10 10 11 12 11 10 9 10 12 15 17 19 20 21 20 20 20 20 21 20 19 19 19 18 18 17 17 18 18 18 18 18 17 17 16 17 16 15 13 13 12 12 13 12 11 9 9 10 11 12 14 15 16 16 17 17 18 18 18 18
59 58 57 56 54 53 50 48 48 48 47 46 46 46 43 40 38 37 36 35 34 34 32 30 31 30 28 26 25 24 23 23 20 15 14 12 11 10 10 10 10 8 7 7 9 10 12 14 16 18 20 21 20 20 20 20 20 20 20 19 18 18 18 18 19 19 18 18 18 18 17 17 17 16 14 12 12 11 11 11 10 9 8 9 10 11 13 15 16 17 17 18 18 18 18 19 19
57 57 58 57 55 54 51 49 49 48 47 47 47 46 43 39 38 37 35 34 32 30 28 28 29 26 22 21 22 22 21 21 17 14 12 11 11 11 10 10 9 8 8 8 10 11 12 13 15 18 20 21 20 19 19 18 18 19 19 19 20 20 20 20 19 18 18 18 18 18 17 17 17 16 14 12 12 11 11 10 9 8 8 9 10 12 14 16 17 18 18 18 18 18 19 20 21
57 57 57 56 54 53 50 48 48 47 46 46 46 45 42 39 37 37 35 33 30 28 27 28 27 23 20 20 22 22 21 19 16 14 13 11 11 11 11 11 10 10 9 9 10 11 12 13 15 18 20 20 20 20 20 19 19 20 20 20 20 20 20 20 19 18 19 19 19 18 17 17 17 16 14 12 12 12 11 10 9 8 9 10 11 13 14 16 17 18 18 18 18 19 20 22 23
57 56 55 54 52 51 48 45 46 47 46 46 45 44 42 39 37 37 36 34 31 29 28 28 25 22 20 21 23 23 21 19 17 15 13 12 11 11 11 10 10 10 10 9 10 12 12 13 15 16 17 19 20 20 20 20 19 19 20 20 19 19 20 20 19 19 20 19 19 18 17 16 15 14 13 12 12 11 11 10 9 9 10 11 12 13 15 16 16 17 17 18 19 20 22 23 25
55 54 54 52 50 49 46 43 44 47 47 46 45 44 43 40 39 38 37 35 32 30 29 28 24 22 22 23 23 23 21 20 18 16 14 12 12 11 11 11 10 10 10 10 11 12 12 13 14 15 16 17 17 16 16 17 17 18 20 21 20 20 20 20 20 21 20 19 18 18 16 15 13 12 13 13 12 11 11 10 9 9 10 11 12 13 15 15 16 17 17 19 20 21 23 24 25
54 53 53 50 47 47 45 42 44 46 47 47 46 45 44 42 40 39 38 36 33 32 31 29 26 23 22 23 23 22 21 20 19 16 14 13 12 12 11 11 11 10 11 11 11 11 12 13 13 14 15 16 14 13 14 16 17 19 21 22 22 21 21 21 21 21 20 18 17 16 15 13 12 13 13 12 11 11 11 10 9 9 10 11 13 14 15 15 16 17 18 20 21 22 23 25 26
54 53 52 50 46 45 44 43 44 47 48 47 47 46 45 43 42 42 41 38 36 34 33 30 26 22 22 24 24 22 21 21 19 17 15 13 12 12 11 11 10 11 11 12 11 11 11 12 12 14 16 17 16 16 16 17 18 21 22 23 23 22 22 22 22 21 19 17 16 14 13 12 12 14 13 12 12 11 10 9 9 9 10 12 13 14 15 16 17 18 19 21 22 23 24 25 26
54 53 52 49 46 44 42 42 44 47 48 48 47 47 47 46 45 44 42 39 37 35 33 29 24 22 25 26 23 21 21 21 19 17 15 13 12 12 11 11 11 12 12 12 12 12 11 11 12 15 17 19 19 19 18 17 19 21 22 23 23 23 23 22 22 20 18 17 14 11 11 11 13 13 12 12 12 11 9 9 9 10 11 12 14 15 16 17 19 20 21 22 22 23 24 25 26
53 52 52 49 46 43 41 42 44 46 48 48 48 49 49 49 47 46 42 40 38 35 33 29 23 24 27 25 22 21 21 20 19 16 14 13 13 13 12 12 12 12 13 13 13 12 12 11 13 16 19 22 21 18 16 17 19 21 22 22 22 23 22 22 21 19 17 15 13 11 12 13 12 11 11 11 11 10 9 8 9 10 12 13 14 16 17 19 20 22 22 23 23 24 25 26 27
53 51 50 48 45 43 41 41 44 46 48 48 48 49 50 50 49 47 43 41 39 36 34 29 26 28 28 24 22 21 20 19 18 16 14 14 14 13 13 12 13 13 13 12 12 11 11 11 14 17 21 23 19 15 16 18 20 21 21 21 21 22 22 21 20 18 15 13 12 13 14 14 12 11 10 10 10 9 8 9 10 11 12 14 15 17 19 20 22 22 23 23 24 25 26 27 27
51 49 48 47 45 42 41 41 43 46 47 48 48 48 49 50 49 47 44 42 40 38 35 31 30 30 27 23 22 21 20 20 18 16 15 14 13 12 12 12 13 12 10 9 9 10 11 13 16 18 20 20 16 14 16 18 18 18 18 18 20 23 22 20 19 16 14 12 13 15 15 13 12 10 10 10 9 8 9 10 11 12 13 15 16 18 20 21 22 23 24 25 26 26 27 28 28
50 48 47 46 44 41 40 40 43 46 48 49 48 49 50 50 49 47 45 43 42 39 35 32 31 29 25 23 22 22 22 20 18 17 16 14 12 11 12 12 12 10 9 9 10 12 13 15 16 17 19 18 16 16 16 16 16 15 15 17 18 20 19 17 16 14 13 11 14 17 16 13 11 11 10 10 9 9 10 11 12 13 14 16 17 19 20 22 23 24 25 26 27 27 28 29 30
50 48 46 44 43 41 39 40 43 46 49 50 49 50 51 50 49 48 47 45 43 38 34 33 31 27 25 23 23 23 22 21 19 17 16 13 12 12 12 11 11 10 11 12 13 13 14 14 15 17 20 18 17 17 16 15 15 14 15 17 18 18 17 15 13 12 11 13 17 18 14 12 11 11 10 9 9 9 10 11 13 14 16 17 18 20 21 23 24 25 26 27 27 28 29 30 30
49 47 45 44 42 41 41 41 43 47 49 49 48 49 50 51 50 49 47 44 40 36 33 31 29 26 25 24 24 23 21 21 20 18 17 14 13 13 11 10 10 11 13 13 14 14 13 13 15 18 19 16 16 18 17 15 15 15 16 17 18 18 16 14 12 11 13 16 18 15 12 12 11 10 8 8 9 10 11 13 14 15 16 17 19 21 22 24 25 26 26 27 28 29 30 30 30
48 48 46 45 43 42 42 43 45 48 47 46 48 49 50 53 50 47 45 41 37 35 32 29 25 23 24 24 24 22 21 22 21 19 18 16 14 13 11 11 12 12 13 14 14 14 12 13 15 16 16 15 16 18 18 16 15 16 16 16 17 16 15 14 13 14 17 18 16 13 12 12 9 8 7 8 10 11 13 14 15 16 17 19 20 22 23 24 25 26 27 28 29 29 30 30 29
49 49 48 47 45 44 44 45 47 47 45 46 49 50 51 52 48 45 44 42 39 35 31 27 23 23 25 25 23 22 22 22 21 20 19 17 15 13 12 13 13 14 14 13 14 14 12 12 14 15 15 16 17 17 16 15 14 15 14 14 15 16 16 15 15 17 18 15 13 12 11 10 7 7 8 9 11 13 14 15 15 16 18 20 21 23 24 25 26 27 27 28 29 29 30 30 30
50 50 49 49 49 48 48 48 48 47 47 49 49 49 51 50 47 45 43 41 38 34 30 27 26 27 27 26 25 24 23 21 21 20 19 17 15 14 14 15 15 15 14 14 15 14 13 12 13 15 15 15 16 14 14 14 13 13 14 14 16 17 17 17 17 17 15 12 11 11 9 8 7 7 9 11 12 13 14 15 16 17 19 21 22 23 24 25 26 27 28 29 29 30 30 30 30
49 48 47 49 50 49 49 49 49 50 51 50 49 49 50 48 47 44 41 38 36 34 33 31 31 31 30 30 29 26 23 21 20 20 18 16 15 15 16 16 16 15 15 15 16 15 14 13 13 14 15 15 14 12 11 12 12 12 13 15 17 17 17 17 16 13 11 11 10 9 8 8 8 9 10 11 12 12 14 15 17 18 20 21 23 24 25 26 27 28 29 30 30 30 30 30 30
48 47 47 49 49 48 48 49 50 51 51 50 49 48 48 47 46 43 40 39 37 36 36 35 35 34 34 32 28 23 22 21 21 20 18 16 16 16 16 16 16 16 15 16 17 16 15 14 13 14 14 14 13 12 11 11 11 12 14 16 18 18 18 17 14 11 11 10 10 10 10 9 9 10 10 11 11 13 14 16 17 19 21 22 23 25 26 27 28 29 30 30 31 31 30 30 30
48 47 48 49 49 49 48 48 48 49 49 48 46 45 46 47 46 43 42 40 39 38 37 36 37 37 37 34 26 22 22 22 21 19 17 17 17 17 17 17 17 17 16 17 18 17 16 14 14 14 14 14 14 14 13 13 12 13 15 17 18 18 17 15 13 12 11 11 11 11 10 10 9 10 10 11 12 13 15 16 18 19 21 23 24 25 27 28 29 30 31 31 31 31 31 30 31
48 47 48 49 49 50 49 48 48 47 47 46 44 43 44 46 46 44 43 41 40 38 36 37 38 38 37 33 27 24 23 22 19 17 17 18 18 18 18 18 18 18 18 18 18 18 16 15 14 13 13 15 16 17 16 16 15 15 16 17 17 16 15 14 13 12 12 11 11 11 10 10 9 9 10 11 12 14 15 17 18 20 22 23 25 27 28 29 30 31 31 31 31 31 31 31 31
46 45 47 49 50 51 51 50 49 47 45 45 43 43 45 47 47 44 42 40 39 37 36 38 39 38 34 30 27 25 23 20 17 15 16 18 19 19 18 18 19 19 19 19 18 18 17 15 14 13 14 15 16 17 17 16 16 16 17 17 16 16 15 14 13 13 12 12 11 11 10 10 9 9 10 11 13 14 16 17 19 21 23 25 26 28 29 30 31 31 31 31 31 31 31 31 31
47 47 48 49 49 50 50 49 49 46 44 44 43 43 45 46 46 44 42 39 37 35 36 38 37 33 29 27 26 24 21 19 17 16 18 20 21 20 19 20 20 19 19 19 19 19 18 16 15 14 14 15 16 17 16 16 16 17 18 17 16 16 15 14 14 13 13 12 12 11 10 10 9 9 11 13 14 15 17 19 20 22 24 26 27 29 30 31 32 32 32 32 32 31 31 31 30
48 49 50 50 50 50 49 48 47 45 42 42 43 43 43 43 44 44 41 37 35 34 35 35 32 28 25 24 23 22 21 20 18 18 19 21 23 22 21 22 21 19 19 19 20 19 18 17 16 15 15 16 17 17 17 17 18 18 18 17 16 16 16 15 15 14 13 13 12 11 10 9 9 10 12 14 15 17 18 20 22 23 25 27 28 29 31 32 32 32 32 32 32 31 31 31 30
45 47 49 51 51 51 50 49 47 45 43 42 42 42 41 40 41 42 39 35 33 33 33 32 29 26 24 23 22 20 19 19 18 19 20 21 22 22 22 22 20 19 19 20 20 20 19 18 16 15 15 16 17 17 19 19 19 19 18 18 17 17 17 16 16 15 14 13 12 11 10 10 11 12 14 16 17 18 19 21 23 24 26 28 29 30 31 32 33 33 33 33 32 31 31 30 30
Wind_Direction
224 223 225 227 223 215 206 197 195 195 197 199 200 205 213 222 230 238 245 247 247 247 248 251 255 258 261 266 271 274 272 273 284 296 308 316 319 316 311 312 315 320 324 322 321 321 324 325 328 330 331 333 338 341 343 343 341 338 334 332 331 332 332 329 326 328 330 338 349 354 356 358 0 1 1 0 359 358 356 355 352 349 345 344 344 345 347 348 349 350 349 350 350 349 352 355 355
226 226 227 230 229 224 215 203 197 196 199 203 206 207 213 224 229 235 244 250 251 250 250 252 256 261 264 265 266 267 266 268 276 285 294 302 310 309 307 312 315 322 327 325 323 322 322 323 327 328 329 331 334 337 338 338 338 336 332 329 328 328 328 325 321 322 326 334 346 351 352 356 358 359 359 359 358 357 355 353 351 347 344 341 341 343 345 347 348 348 349 349 348 350 353 357 360
229 230 230 231 233 232 225 213 203 198 198 203 210 213 214 224 229 234 241 247 254 254 253 253 256 262 265 266 265 266 265 268 275 283 288 290 298 301 304 312 314 319 324 323 322 322 322 322 324 324 326 328 330 332 333 334 334 334 330 327 325 324 323 321 317 317 322 330 343 348 349 353 356 357 357 357 357 356 354 351 349 347 343 338 336 339 342 345 347 347 349 349 349 352 357 3 8
232 233 233 232 232 233 230 224 214 203 199 200 206 216 218 226 230 233 240 243 249 253 255 256 258 263 265 265 265 267 268 271 277 282 285 285 288 293 299 307 308 310 314 317 318 320 321 320 320 321 323 324 325 326 328 330 331 331 327 323 322 320 317 315 314 315 321 329 340 345 345 349 353 354 355 355 356 355 352 350 348 346 342 336 332 333 337 339 344 348 348 349 352 359 7 13 14
234 235 234 232 233 233 231 229 224 212 204 201 202 213 217 224 231 233 240 244 246 248 253 256 259 263 265 266 266 267 269 274 279 281 282 281 282 286 293 299 303 304 306 311 315 319 319 317 316 318 319 319 320 320 323 326 328 327 324 320 319 316 312 312 314 315 321 328 336 342 341 345 351 353 353 355 356 355 352 349 347 345 342 337 332 330 333 335 341 345 346 349 357 11 22 22 15
234 236 235 233 233 232 231 229 228 222 214 208 203 211 215 218 227 232 238 242 245 247 252 256 257 259 262 265 266 267 271 276 281 282 281 280 281 283 285 291 300 302 302 307 313 316 315 314 314 315 315 314 314 315 319 323 324 323 320 317 315 314 310 311 316 318 321 325 332 337 337 342 350 352 353 355 356 354 351 349 347 345 343 339 334 332 332 335 339 343 347 350 360 22 31 23 13
234 236 236 235 234 233 231 229 228 226 221 218 208 209 215 217 223 229 235 238 242 247 251 255 256 257 258 261 264 268 272 277 280 282 283 283 285 285 284 289 297 300 301 304 309 312 312 311 311 311 310 308 309 311 315 319 319 317 315 313 313 314 310 312 317 318 319 320 326 332 334 341 350 351 352 355 355 353 351 349 348 347 345 343 338 336 336 337 340 343 350 355 5 26 30 19 9
234 235 236 235 236 233 233 230 228 227 222 222 214 209 212 212 217 224 230 234 238 243 248 251 254 256 257 259 263 267 271 274 278 281 283 283 285 286 286 290 294 297 299 302 305 308 308 307 306 306 305 304 305 306 311 315 314 312 311 309 310 313 310 311 315 314 312 314 322 329 332 341 348 348 351 354 353 352 351 350 350 349 349 348 345 343 343 342 343 347 352 2 16 26 20 10 2
235 235 236 235 236 235 234 231 228 228 224 222 219 216 215 211 214 220 224 231 236 240 246 249 252 255 257 260 261 264 266 270 274 278 279 279 282 285 286 288 290 294 300 302 301 303 305 305 304 303 301 301 301 303 307 310 309 306 305 305 308 311 308 307 309 306 306 311 321 326 332 341 345 345 349 351 352 352 352 351 350 350 352 353 353 352 351 349 350 352 352 3 27 22 7 356 353
236 236 236 236 236 235 234 233 230 229 226 224 220 220 223 220 221 223 222 230 237 241 244 248 251 253 256 258 260 262 263 267 271 274 275 277 280 283 284 286 287 294 303 302 298 302 306 307 304 301 299 299 299 301 304 305 303 300 300 302 306 310 305 300 301 300 304 312 321 326 332 340 342 343 345 348 351 352 351 350 350 350 352 353 356 359 358 357 359 356 345 338 321 338 346 345 345
236 236 236 237 236 235 235 234 232 230 228 227 221 217 221 225 228 225 220 226 237 242 245 248 251 253 255 257 259 261 264 267 271 272 274 276 280 281 282 285 289 297 304 301 300 306 310 309 305 302 300 298 298 299 300 301 298 296 297 300 307 308 299 293 295 297 305 315 321 324 329 337 339 339 340 344 350 353 351 349 349 349 350 351 355 1 2 1 1 354 336 308 284 307 331 339 340
236 236 236 238 236 234 234 235 232 231 229 228 225 219 217 224 231 228 221 224 232 241 248 250 252 254 255 257 260 263 266 268 269 271 273 275 276 277 279 283 290 298 300 300 305 309 311 309 305 302 299 297 296 296 298 298 295 293 297 303 308 303 294 290 293 298 307 316 318 319 325 334 336 335 334 339 347 352 352 348 347 348 348 348 351 357 1 1 359 349 328 299 289 311 329 335 337
235 237 237 237 237 234 234 234 232 230 229 228 226 223 220 223 231 233 228 229 231 238 246 250 252 254 255 257 260 263 265 266 268 270 271 272 272 273 276 282 290 294 294 300 308 310 310 306 304 302 299 295 293 295 298 297 293 294 299 304 305 298 292 291 293 299 308 312 313 314 322 331 333 331 330 335 343 349 351 347 345 345 346 345 345 348 352 354 351 342 326 305 302 317 327 332 335
235 237 238 238 237 235 234 234 233 230 228 228 228 225 225 224 227 233 234 234 234 237 242 247 251 254 255 256 259 259 260 263 265 267 269 270 271 273 276 282 287 288 291 302 308 308 307 303 302 302 297 294 293 297 298 294 292 295 299 301 299 297 294 293 294 300 306 309 309 312 319 328 329 327 327 331 339 345 347 346 344 343 344 344 342 340 340 341 340 334 325 312 314 322 327 331 335
234 236 237 237 236 235 234 234 234 232 229 229 230 228 229 230 229 232 235 235 233 237 240 242 247 251 254 255 257 257 258 261 263 265 268 271 273 275 278 281 283 284 291 300 302 304 303 298 298 299 297 297 299 299 295 291 292 294 296 297 297 298 297 293 295 299 305 307 307 310 317 324 324 324 324 326 333 338 342 343 344 343 345 347 344 339 335 334 334 331 324 315 316 321 325 331 337
233 235 236 236 235 234 233 234 234 234 232 230 232 233 232 233 235 235 237 237 234 236 239 241 244 248 251 253 254 257 260 262 264 266 270 273 276 278 279 281 281 283 290 293 295 299 298 294 293 296 299 301 301 297 292 292 293 295 295 296 298 298 294 292 295 299 304 305 304 307 313 318 319 320 318 319 326 332 336 339 342 343 344 348 347 341 335 332 332 329 321 313 311 315 322 331 339
232 233 234 233 233 233 232 233 234 234 234 232 232 235 234 234 237 240 239 241 241 240 241 242 245 247 249 251 252 255 259 261 264 267 271 275 278 278 279 282 282 284 287 288 294 297 293 291 290 291 296 298 297 294 293 294 295 298 299 298 297 294 291 292 293 297 303 302 301 304 307 311 313 314 311 311 319 325 330 334 339 341 343 346 347 344 338 332 329 325 316 308 306 312 323 333 341
232 232 232 232 232 232 232 233 234 236 236 232 232 234 236 235 237 243 244 244 246 246 246 247 248 251 251 252 254 254 256 260 264 268 272 274 276 277 279 282 284 285 288 290 294 294 287 285 286 287 290 292 292 293 293 295 300 302 302 298 293 289 289 289 289 294 298 297 298 299 300 301 304 305 302 303 310 317 322 328 334 338 340 342 344 342 339 332 322 317 311 306 304 311 323 336 346
231 231 232 233 233 233 234 234 235 236 236 232 231 234 237 237 237 242 245 246 247 248 249 251 252 254 256 256 257 256 258 261 266 269 270 271 273 276 279 282 284 288 294 297 292 284 279 277 280 284 285 286 286 289 291 295 302 305 302 295 288 286 285 284 286 289 291 293 294 293 293 295 296 297 295 295 300 306 314 322 328 333 336 338 340 339 337 332 320 313 313 309 305 309 323 338 349
231 232 233 234 234 235 235 235 236 236 237 233 230 233 236 238 238 240 244 246 247 248 249 252 254 255 258 258 258 258 260 263 266 268 268 269 271 275 278 281 285 288 295 302 292 275 271 272 275 279 281 282 285 288 290 294 299 301 299 292 285 282 280 280 282 284 286 287 287 287 288 290 291 291 290 289 292 297 308 317 320 326 330 334 335 333 334 332 323 315 314 312 310 316 329 340 346
232 232 234 235 235 235 235 235 236 237 237 234 230 231 235 238 239 240 242 244 246 248 248 250 254 255 256 257 258 258 259 261 263 265 266 268 270 273 277 280 286 290 296 305 299 275 268 274 279 284 286 286 290 293 292 291 290 291 291 286 281 279 279 279 280 281 282 283 284 285 287 288 289 290 289 287 287 291 301 310 311 316 323 326 325 324 328 331 326 316 312 311 313 325 334 338 341
233 233 235 236 236 236 236 235 236 237 237 236 232 232 234 237 238 240 241 243 244 246 247 248 252 255 256 257 258 259 259 260 261 262 264 267 269 272 275 279 284 289 302 312 306 283 271 283 295 295 296 295 297 298 295 292 284 282 283 282 280 280 282 282 281 283 284 285 286 287 287 288 289 292 291 289 286 284 289 296 298 305 312 315 316 316 320 324 325 321 318 317 319 325 329 331 333
234 235 236 237 237 237 236 236 236 237 237 237 235 234 236 236 237 239 240 242 244 244 245 247 248 252 256 258 260 260 261 262 262 262 264 266 269 271 273 277 279 282 303 323 325 302 280 286 302 300 299 300 304 303 299 294 285 279 277 278 281 283 285 284 283 284 285 286 286 286 285 286 289 290 291 291 288 283 276 273 279 291 299 304 308 309 310 314 318 319 318 317 318 320 320 321 322
234 236 237 238 238 238 237 237 237 238 238 238 237 236 236 236 237 239 239 241 243 244 245 246 247 250 254 258 260 261 262 263 264 265 266 267 268 271 273 274 273 272 288 314 345 341 309 293 296 296 296 298 303 305 301 295 286 279 272 271 276 282 282 281 282 282 284 286 286 285 283 284 286 286 287 288 288 283 272 261 262 273 283 290 293 297 300 303 309 313 314 313 312 312 311 311 314
233 235 237 239 239 239 238 237 237 238 238 239 238 238 238 238 238 239 239 240 242 244 245 246 248 250 253 256 259 261 263 264 267 269 269 269 271 273 272 270 269 267 273 284 303 323 322 301 290 289 289 289 294 301 303 296 284 275 266 263 269 276 279 280 281 282 283 285 285 284 284 284 283 283 282 280 278 275 270 261 253 257 268 277 282 288 294 299 305 308 309 307 303 302 302 304 309
233 234 235 237 239 238 237 237 237 238 238 239 238 238 239 239 238 239 239 240 242 245 246 247 248 251 254 256 258 260 262 265 268 270 271 276 279 278 276 273 271 270 273 277 286 300 306 294 285 284 281 279 284 289 296 293 280 270 263 261 266 272 277 280 280 281 283 284 284 284 284 284 284 284 281 277 272 266 265 261 250 248 261 271 280 287 292 297 301 300 299 297 295 295 296 301 306
231 233 233 234 237 237 236 234 234 235 236 236 237 238 240 238 238 238 238 240 242 244 247 247 248 251 254 256 258 260 262 265 268 270 274 282 285 284 282 277 275 275 276 278 282 290 294 286 282 280 275 273 277 280 285 284 275 267 262 261 264 269 276 279 280 280 283 283 283 284 284 285 286 286 285 282 276 265 259 255 247 247 259 270 281 287 290 292 294 293 292 290 289 290 294 299 301
230 231 232 232 234 236 234 232 232 233 233 234 236 237 239 237 236 237 238 239 241 243 246 247 248 250 253 255 258 260 263 266 269 273 279 285 288 288 285 279 278 278 277 279 280 281 283 281 280 277 271 270 274 276 277 274 268 265 264 265 264 267 274 279 280 280 281 281 282 283 284 285 286 288 288 287 281 266 251 245 245 246 255 265 276 283 285 286 286 285 285 285 286 288 291 294 296
229 230 231 231 232 234 232 231 230 231 232 232 234 236 236 236 235 236 238 239 240 242 245 247 248 249 252 256 258 260 264 267 272 277 281 285 288 289 285 281 279 277 277 275 272 271 272 272 271 268 265 267 271 273 270 261 257 259 265 270 269 269 274 278 280 280 279 278 279 281 281 282 283 285 286 284 279 265 246 238 240 244 253 262 271 276 280 279 278 277 279 280 283 286 289 292 298
229 229 231 230 230 231 230 229 229 229 231 231 233 235 235 236 236 237 238 239 241 242 244 246 249 250 252 256 258 260 264 269 274 279 281 283 287 287 283 280 278 277 273 268 265 263 261 260 261 263 265 266 267 267 264 258 254 258 264 269 269 268 273 277 280 278 276 275 275 277 277 276 277 278 280 281 276 265 245 235 237 244 252 261 267 272 273 273 272 274 276 280 284 287 289 293 297
229 230 230 230 229 230 228 228 228 228 230 230 233 235 234 236 237 237 238 238 241 243 244 246 248 250 251 254 258 261 265 271 275 279 280 281 284 283 279 277 276 273 267 264 261 257 251 250 255 262 265 264 262 260 259 255 254 259 263 265 265 267 273 278 278 275 272 272 272 272 269 268 269 270 275 278 276 266 246 233 236 244 254 261 267 271 271 270 272 275 278 282 285 287 288 291 294
228 229 229 229 229 229 226 226 227 226 228 229 232 235 234 235 236 237 238 238 240 243 245 247 249 250 250 252 257 261 267 272 275 278 280 282 283 282 278 272 271 268 265 264 260 251 248 249 254 260 263 260 257 256 255 256 259 262 263 261 261 267 274 277 274 270 269 268 268 266 263 263 265 267 271 275 275 266 245 231 234 245 256 264 268 271 272 274 276 278 281 284 286 287 289 292 296
227 227 228 228 229 229 225 224 225 224 225 227 230 234 234 235 236 237 238 239 240 242 244 246 248 249 249 252 258 263 269 273 275 279 284 288 286 279 272 265 265 264 264 264 259 253 250 251 254 257 259 258 255 253 255 260 264 265 262 258 258 269 277 273 268 267 267 266 265 264 262 263 265 266 269 272 272 263 243 232 238 249 259 266 271 275 278 279 280 282 285 287 289 290 293 297 300
225 225 226 226 227 228 226 224 225 224 223 225 228 232 233 233 236 237 239 239 240 242 243 245 247 248 249 253 257 263 269 272 276 282 287 287 281 271 264 259 258 260 262 261 259 258 254 253 255 256 259 259 256 254 258 261 263 263 259 256 261 272 275 268 265 266 267 266 264 264 264 262 262 264 266 266 262 252 238 235 243 253 262 271 277 281 284 284 285 286 288 291 292 294 297 300 301
225 225 224 224 225 226 224 223 224 225 224 224 226 230 231 232 234 236 238 239 240 242 243 245 246 247 248 249 253 259 266 270 274 279 281 281 274 265 260 256 257 261 261 260 263 261 258 259 258 259 261 260 256 256 258 260 260 258 257 259 264 269 268 264 263 266 266 264 263 263 263 261 260 260 261 257 247 239 233 235 243 252 262 273 279 284 286 287 287 289 290 292 294 296 299 301 302
225 225 225 225 225 226 225 222 224 225 225 225 227 229 231 232 234 236 238 238 239 239 240 241 243 244 243 244 251 258 263 267 269 271 275 276 270 263 259 258 260 264 262 260 264 260 259 262 258 259 262 260 257 257 259 262 261 259 259 261 265 265 263 261 261 262 261 260 261 261 260 261 261 260 258 247 235 229 227 231 240 251 263 273 279 283 284 285 287 290 293 295 297 299 302 303 304
224 224 224 224 225 226 226 222 222 224 224 225 226 229 231 231 232 235 237 237 237 237 237 239 241 240 238 244 252 256 260 263 265 268 272 270 265 259 256 257 258 262 264 262 260 256 256 259 259 262 260 256 258 260 261 264 263 260 260 261 265 267 264 258 256 257 257 257 258 258 259 259 259 260 256 239 226 221 221 227 237 250 263 272 278 282 284 286 288 291 294 297 300 302 303 304 304
223 224 224 223 222 224 225 221 220 222 223 223 224 226 228 229 230 232 235 236 236 237 238 239 239 235 237 244 248 250 255 259 263 267 268 265 260 254 250 251 253 257 261 260 257 257 257 257 260 262 259 257 259 260 261 263 262 259 259 261 266 270 265 255 252 253 255 256 255 254 254 252 253 256 247 232 221 217 221 229 239 253 265 274 279 283 286 288 289 291 294 297 300 302 302 303 303
221 222 223 221 220 222 222 218 216 219 221 222 223 225 226 227 228 229 232 234 234 235 237 238 235 231 235 240 241 244 251 257 263 265 265 262 256 250 247 248 251 256 259 260 259 259 258 257 258 258 259 259 254 257 264 265 261 257 257 261 266 266 260 251 249 252 255 254 252 250 248 244 244 245 236 225 220 220 225 233 244 256 267 274 280 284 285 286 288 291 295 297 299 299 300 301 301
218 219 221 219 217 219 220 215 213 216 218 218 220 222 224 225 225 227 229 230 231 233 235 236 232 228 232 234 234 240 248 255 261 262 263 259 252 248 248 249 251 253 255 258 259 256 254 253 253 253 254 252 250 261 269 263 258 256 258 263 264 259 251 247 248 252 254 251 248 246 247 240 231 230 226 222 226 228 231 238 248 260 269 277 282 285 286 288 290 293 295 297 297 298 298 299 300
215 216 218 217 215 216 218 214 212 214 215 216 217 220 223 224 224 225 227 228 229 230 233 234 230 226 230 232 231 237 246 253 258 260 261 257 249 246 247 248 250 253 255 257 257 254 251 250 249 248 247 247 251 261 265 258 256 259 261 262 261 255 248 245 249 253 252 246 242 239 241 236 227 225 226 228 231 233 237 245 258 269 277 282 285 287 289 291 293 295 296 297 297 297 298 299 301
214 214 216 215 213 213 214 212 210 213 214 215 216 218 221 223 224 225 225 226 228 229 231 231 227 226 229 230 230 236 244 251 255 257 257 251 246 245 245 248 251 253 255 257 257 255 252 248 247 246 246 247 251 260 263 259 258 259 256 254 254 252 248 246 251 254 248 240 235 232 233 235 235 231 228 229 231 235 244 256 268 275 280 283 285 288 290 293 296 297 298 298 299 299 300 302 303
213 212 213 214 212 211 212 210 208 211 214 214 215 219 222 223 224 225 225 225 227 227 228 226 224 226 229 228 229 236 243 249 251 250 247 245 244 246 247 249 250 253 256 257 254 248 244 242 243 245 248 250 254 259 258 255 255 255 253 249 246 246 247 250 253 249 239 231 228 229 231 234 236 231 225 226 228 235 249 261 268 274 278 282 286 289 292 295 297 298 299 301 302 303 304 305 306
213 211 212 213 211 210 210 208 207 210 212 213 214 218 223 225 226 226 225 226 226 226 224 222 223 227 227 226 230 237 242 245 246 243 240 240 243 246 247 248 251 253 251 244 239 237 239 241 243 247 254 258 256 252 250 252 253 252 253 253 248 249 252 254 251 237 223 222 227 233 236 232 228 225 224 225 229 238 250 260 267 274 279 284 288 292 294 296 298 301 302 304 305 306 307 307 306
212 209 210 211 210 209 208 206 206 209 212 213 213 216 221 224 225 225 225 225 227 226 224 223 225 228 226 227 232 238 242 243 241 236 235 237 240 240 243 248 251 247 235 232 240 245 249 251 252 257 261 259 247 242 248 253 255 252 249 248 250 257 258 254 248 232 216 222 235 238 236 228 221 220 222 226 234 245 255 264 272 278 284 289 292 295 298 300 302 304 306 307 307 308 307 306 305
211 207 207 209 209 208 205 204 206 208 212 214 214 216 221 223 223 224 224 224 226 226 225 226 227 227 227 229 234 238 242 243 239 233 233 234 234 236 242 248 248 242 238 243 251 254 255 256 254 252 254 252 244 244 251 254 255 252 244 243 249 257 256 249 242 230 223 230 236 235 229 221 216 217 223 231 243 255 265 273 279 285 289 293 297 300 302 304 306 307 308 308 308 307 307 305 304
209 205 203 205 207 206 203 203 204 208 212 214 215 217 221 224 223 223 224 224 225 227 227 228 229 229 232 234 237 239 240 241 238 233 231 230 231 237 244 248 245 243 245 250 253 253 252 252 251 251 253 253 250 248 249 252 254 253 247 246 250 251 247 240 234 233 234 233 231 227 220 215 214 217 229 244 258 270 277 282 286 291 295 299 302 304 306 307 308 309 309 308 308 308 307 306 306
207 203 200 202 204 204 203 202 203 208 212 213 214 217 221 224 224 223 225 224 223 225 225 226 228 229 233 234 235 236 235 236 236 233 232 229 231 237 242 244 244 246 250 249 249 247 244 242 246 255 258 253 253 251 250 255 255 251 250 248 246 243 238 234 234 236 234 229 226 219 215 215 216 226 245 263 274 281 284 287 291 296 301 304 306 307 309 310 310 310 310 310 309 309 308 309 310
205 202 199 199 202 202 202 202 205 210 213 212 212 216 220 224 224 223 224 223 220 220 219 219 220 221 225 228 229 229 230 233 233 232 230 227 230 238 242 243 244 248 250 244 240 239 236 235 243 256 259 252 253 254 252 254 251 248 251 246 239 237 237 234 232 232 228 224 220 214 214 219 226 243 261 273 279 281 285 290 296 302 306 308 309 310 311 311 311 311 311 311 312 311 312 313 314
203 202 200 201 203 203 204 205 208 211 213 212 210 215 220 223 224 222 223 223 220 217 215 213 213 214 218 220 220 223 227 230 230 228 224 225 233 241 243 243 244 246 246 240 237 236 233 236 245 256 258 251 248 247 245 247 249 252 252 243 235 235 236 232 227 227 224 218 215 215 221 230 240 255 266 273 277 281 288 296 302 307 310 311 313 314 313 313 313 313 313 314 314 315 315 316 316
203 202 200 204 208 208 208 207 208 210 214 213 210 213 220 222 222 221 221 222 220 216 213 211 212 214 218 221 223 226 229 230 228 223 219 225 237 240 240 240 242 244 243 239 238 238 237 241 247 252 254 253 250 246 242 243 249 251 246 239 235 234 233 232 228 222 216 213 217 223 231 239 249 259 265 270 277 286 295 302 307 311 314 315 315 316 315 316 316 316 317 317 317 317 317 316 316
203 200 198 203 208 209 209 208 209 210 213 215 211 212 220 222 221 218 216 218 219 216 214 213 215 217 220 224 227 229 229 226 224 220 218 227 234 235 236 238 241 243 242 240 240 239 238 240 245 248 252 254 252 247 245 249 255 252 243 238 235 231 232 232 226 214 210 213 221 229 235 243 251 257 264 273 283 294 301 307 312 316 317 317 317 318 318 319 319 319 319 318 318 317 316 316 316
200 198 198 203 205 206 208 209 211 212 214 217 214 213 219 223 223 218 214 214 216 216 215 215 218 221 224 225 224 225 224 219 218 220 221 225 228 230 233 236 240 244 242 240 239 237 237 239 241 245 247 247 246 245 248 255 259 253 241 235 231 229 228 224 215 210 212 218 224 231 238 244 250 258 268 281 292 301 307 312 316 319 319 319 320 321 321 321 322 321 321 320 319 317 316 315 315
200 197 198 201 202 204 206 208 210 213 215 218 217 214 218 223 224 220 215 213 214 215 215 217 219 223 226 228 226 223 219 214 216 223 223 224 226 229 233 237 241 243 241 240 238 236 236 238 239 240 242 244 245 246 249 254 256 247 237 232 227 223 219 215 213 216 220 224 229 234 239 244 251 263 277 290 300 305 311 316 319 320 321 322 323 323 323 324 324 323 322 320 318 316 315 314 313
200 197 199 201 201 204 206 206 209 212 213 217 217 215 218 222 224 223 217 214 214 216 217 218 221 225 230 234 232 224 217 218 224 227 225 225 228 232 236 240 243 244 244 242 239 236 235 235 236 236 240 244 246 247 250 252 249 239 232 228 222 217 215 216 220 224 227 229 231 233 238 246 257 272 287 297 302 307 314 319 321 322 324 325 325 325 325 325 324 323 322 320 317 315 313 313 312
198 196 198 201 203 207 207 207 208 210 212 216 218 217 219 221 224 224 220 214 214 217 219 221 225 228 233 239 236 226 221 226 229 227 227 228 232 235 237 239 243 245 245 242 237 234 232 232 233 235 239 244 245 245 245 243 238 232 228 224 219 218 221 226 229 231 231 229 229 232 240 251 265 281 292 298 302 309 316 320 323 324 326 327 326 326 325 325 324 323 321 319 317 314 313 312 312
201 197 197 199 203 207 207 208 209 209 211 215 218 219 220 221 223 225 221 214 211 214 219 224 228 231 236 239 234 226 226 229 228 226 228 229 232 234 235 238 243 245 245 242 237 234 231 230 231 233 238 243 245 243 237 231 228 226 224 222 221 225 229 234 236 234 230 228 230 238 248 260 274 285 291 296 303 311 316 320 323 325 327 327 327 326 325 324 324 322 321 319 316 314 312 312 313
205 201 199 199 201 204 206 208 210 210 210 215 219 221 221 221 223 225 222 214 210 212 217 224 228 233 237 235 227 223 225 226 224 227 228 229 231 232 234 238 241 242 242 240 236 233 232 231 231 232 236 241 245 241 233 226 224 223 222 222 226 231 235 238 238 234 229 230 236 246 256 266 275 283 290 298 305 310 314 318 322 324 326 326 326 326 325 324 323 322 320 318 316 313 312 312 313